BLOCK DM-SL R/B, 29521

Orbit data source: Space-Track

BLOCK DM-SL R/B, 29521 is space debris in HEO originally from a launch on Mon, 30 Oct 2006 UTC launched from the Sea Launch (SEAL). Debris objects in space refer to the collection of defunct objects orbiting the Earth. Examples of debris include non-operational satellites, rocket bodies, and fragments generated from explosions, collisions, or faulty payload assembly.

Loading next visibility...
Identifier
29521, 2006-049B
Orbit
HEO
Country
Flag of UnknownUnknown / SEAL
Related business
Manufacturer
RKKE
Mission
Spacecraft
Bus & Motor
BLOK DM2, 11D58M
Mass
~3,070 kg wet, 3,070 kg dry
Launch date (UTC)
2006-10-30 (19 years ago)
Launch vehicle
Unknown
Launch site
Sea Launch (SEAL)
Object type
Payload
Rocket body
Debris
Shape & HBR
Cyl, 3.1 m
Radar Cross Section
23.684 m², Large (>1 m²)

Expand to show TLE details & history
Last TLE update: 4 hours ago

TLE from 4 hours ago
0 BLOCK DM-SL R/B
1 29521U 06049B   26036.18063944 -.00000067  00000-0  00000+0 0  9993
2 29521   0.4287  40.2445 6933898  15.8205   7.8613  2.18867660154052
Epoch: 2026-02-05T04:20Z
TLE epoch observation values (Epoch: 2026-02-05T04:20:07.247Z)
Latitude
0.4212°
Longitude
-91.40202°
Altitude
2,823.892 km
Speed
8.409 km/s
True Right ascension
07h 15m 51s
True Declination
0° 25' 09"
Sunlit
Object was in full shadow at epoch
Visualization orbit readout
Latitude
Unknown
Longitude
Unknown
Altitude
Unknown
Speed
Unknown
Apparent Right ascension
Unknown
Apparent Declination
Unknown
Sunlit
N/A
Visualization observer readout
Local Sidereal Time
09:51:35
Azimuth
Unknown
Elevation
Unknown
Doppler factor
Unknown
Orbital elements
Apogee altitude
36,062.908 km
Perigee altitude
1,306.365 km
Semi-major axis
25,062.773 km
Eccentricity
0.69339
Inclination
0.4287°
RAAN
40.2445°
Arg. of periapsis
15.8205°
True anomaly
53.19537°
Mean anomaly
7.8613°
Eccentric anomaly
24.05525°
Mean motion
0.54702 °/min
Orbital period
658.12 mins
BSTAR
0
Loading maneuver chart data...
Computing Atmospheric mass density...
Loading historical data...
Loading historical data...
Loading historical data...
Loading historical data...
Loading historical data...
Loading historical data...
Loading historical data...
Other satellites on launch #49 in the year 2006 (2006-10-30 UTC)

Documentation

Showing up to 5 results
|